This is the latest recevied weather packets stored in our database for station/object KJ7HSW. If no packets are shown the sender has not sent any weather packets the latest 1 day(s).
| Time | Temp. | Humidity | Pressure | Rain* | Wind** | Luminosity | Snow |
|---|---|---|---|---|---|---|---|
| 1778020700 | 22.78° C | 56% | 1013.8 hPa | 0 mm | 1.79 m/s, 236° | 651 W/m² | - |
| 1778020397 | 22.78° C | 57% | 1013.9 hPa | 0 mm | 2.24 m/s, 293° | 659 W/m² | - |
| 1778020093 | 22.78° C | 55% | 1014 hPa | 0 mm | 0.89 m/s, 300° | 670 W/m² | - |
| 1778019789 | 22.78° C | 54% | 1014 hPa | 0 mm | 2.24 m/s, 225° | 683 W/m² | - |
| 1778019487 | 22.22° C | 55% | 1013.9 hPa | 0 mm | 1.34 m/s, 322° | 690 W/m² | - |
| 1778019183 | 22.22° C | 56% | 1014 hPa | 0 mm | 2.24 m/s, 265° | 702 W/m² | - |
| 1778018880 | 22.78° C | 56% | 1014.2 hPa | 0 mm | 1.79 m/s, 299° | 710 W/m² | - |
| 1778018577 | 22.22° C | 56% | 1014.2 hPa | 0 mm | 3.13 m/s, 244° | 719 W/m² | - |
| 1778018275 | 22.22° C | 60% | 1014.2 hPa | 0 mm | 1.79 m/s, 248° | 731 W/m² | - |
| 1778017973 | 21.67° C | 57% | 1014.1 hPa | 0 mm | 1.79 m/s, 285° | 738 W/m² | - |
| 1778017670 | 22.22° C | 57% | 1014.1 hPa | 0 mm | 3.13 m/s, 240° | 743 W/m² | - |
| 1778017368 | 21.67° C | 60% | 1014.3 hPa | 0 mm | 1.34 m/s, 247° | 751 W/m² | - |
| 1778017065 | 21.67° C | 60% | 1014.3 hPa | 0 mm | 3.13 m/s, 211° | 760 W/m² | - |
| 1778016762 | 21.67° C | 59% | 1014.2 hPa | 0 mm | 1.79 m/s, 249° | 767 W/m² | - |
| 1778016458 | 21.67° C | 58% | 1014.5 hPa | 0 mm | 0.45 m/s, 153° | 774 W/m² | - |
| 1778016155 | 21.67° C | 61% | 1014.3 hPa | 0 mm | 1.34 m/s, 268° | 778 W/m² | - |
| 1778015852 | 21.67° C | 62% | 1014.1 hPa | 0 mm | 2.24 m/s, 267° | 786 W/m² | - |
| 1778015550 | 21.67° C | 61% | 1014.3 hPa | 0 mm | 0.89 m/s, 95° | 791 W/m² | - |
| 1778015246 | 21.11° C | 62% | 1014.3 hPa | 0 mm | 1.34 m/s, 321° | 793 W/m² | - |
| 1778014943 | 21.67° C | 63% | 1014.3 hPa | 0 mm | 1.79 m/s, 200° | 792 W/m² | - |
| 1778014640 | 21.11° C | 62% | 1014.4 hPa | 0 mm | 0 m/s | 794 W/m² | - |
| 1778014338 | 21.11° C | 63% | 1014.1 hPa | 0 mm | 1.79 m/s, 176° | 792 W/m² | - |
| 1778014034 | 21.11° C | 62% | 1014.2 hPa | 0 mm | 2.24 m/s, 241° | 797 W/m² | - |
| 1778013733 | 21.11° C | 64% | 1014.4 hPa | 0 mm | 1.79 m/s, 331° | 810 W/m² | - |
| 1778013429 | 20.56° C | 64% | 1014.4 hPa | 0 mm | 1.79 m/s, 241° | 814 W/m² | - |
* Rain latest hour (hover to see other rain measurements)
** Current wind speed in m/s (hover to see current wind gust speed)